Miscellaneous Local Product
Issued by NWS Hastings, NE

Home | Current Version | Previous Version | Text Only | Print | Product List | Glossary Off
Versions: 1 2 3 4 5 6 7 8 9 10 11 12 13 14 15 16 17 18 19 20 21 22 23 24 25 26 27 28 29 30 31 32 33 34 35 36 37 38 39 40 41 42 43 44 45 46 47 48 49 50

000
AXUS43 KGID 240202
MISGRI

GID CWA HOURLY WEATHER ROUNDUP
NATIONAL WEATHER SERVICE HASTINGS NE
900 PM CDT WED APR 23 2014

NOTE: "FAIR" INDICATES FEW OR NO CLOUDS BELOW 12,000 FEET WITH NO
SIGNIFICANT WEATHER AND/OR OBSTRUCTIONS TO VISIBILITY.

...SOUTH CENTRAL NEBRASKA...

CITY           SKY/WX    TMP DP  RH WIND       PRES   REMARKS
GRAND ISLAND   TSTM      61  53  75 S9G29     29.55R
HASTINGS       TSTM      63  54  72 S10G26    29.54R
KEARNEY        CLOUDY    61  55  82 S12       29.57R
ORD            CLOUDY    68  52  56 E14       29.50R
YORK           RAIN      57  54  88 N14G38    29.66R
AURORA         CLOUDY    61  55  79 E3        29.60R
LEXINGTON      CLOUDY    65  38  37 E7        29.60R
HOLDREGE       RAIN      61  54  76 W8        29.58R
HEBRON         MOCLDY    75  46  35 S9        29.52R

...NEBRASKA PANHANDLE...

CITY           SKY/WX    TMP DP  RH WIND       PRES   REMARKS
CHADRON        CLOUDY    52  39  61 NE5       29.75R
ALLIANCE       CLOUDY    54  31  41 NW8       29.72R
SCOTTSBLUFF    CLOUDY    57  10  15 NW16G24   29.76R
SIDNEY         CLOUDY    56  16  20 NW24G37   29.79R

...WESTERN AND NORTH CENTRAL NEBRASKA...

CITY           SKY/WX    TMP DP  RH WIND       PRES   REMARKS
VALENTINE      CLOUDY    57  40  52 NW20G26   29.65R
AINSWORTH      CLOUDY    60  44  55 N24G33    29.66R
ONEILL         CLOUDY    66  47  51 SE9       29.56R THUNDER
BROKEN BOW     CLOUDY    67  23  19 N22G28    29.53R
IMPERIAL       MOCLDY    60  28  29 NW37G52   29.65R HAZE
NORTH PLATTE   PTCLDY    65  24  21 N14       29.59R
MCCOOK         CLOUDY    65  41  41 N26G38    29.56R

...EASTERN NEBRASKA...

CITY           SKY/WX    TMP DP  RH WIND       PRES   REMARKS
NORFOLK        CLOUDY    56  48  74 E9        29.59R
SO SIOUX CITY  CLOUDY    53  46  77 E9        29.65R
TEKAMAH        LGT RAIN  52  46  80 SE32G41   29.65F
COLUMBUS       CLOUDY    57  48  72 SE17G23   29.63R
ALBION         CLOUDY    56  48  74 E14       29.58R
OMAHA EPPLEY   CLOUDY    56  43  61 E8        29.67R
OFFUTT AFB     MOCLDY    57  46  67 E9        29.64R
MILLARD        CLOUDY    58  43  59 CALM      29.64R
LINCOLN        CLOUDY    63  47  55 E12       29.58S
NEBRASKA CITY  CLOUDY    65  43  43 SE21G26   29.60S
BEATRICE       MOCLDY    72  47  41 SE17      29.54R
FALLS CITY     MOCLDY    67  45  45 SE20G26   29.61S

...NORTHERN KANSAS...

CITY           SKY/WX    TMP DP  RH WIND       PRES   REMARKS
GOODLAND       CLOUDY    63  23  21 N29G46    29.61R
HILL CITY      MOCLDY    60  53  77 N15       29.49R
PHILLIPSBURG   TSTM      63  55  77 W18G30    29.50R
SMITH CENTER   MOCLDY    70  54  56 W21G29    29.53R
BELOIT         CLEAR     77  46  33 SE18G26   29.47S
HAYS           MOCLDY   N/A N/A N/A S32G43    29.45R
RUSSELL        CLOUDY    76  49  38 S28G43    29.46R
CONCORDIA      CLOUDY    78  44  29 S23G30    29.52R
SALINA         CLOUDY    79  47  32 S22G30    29.54R
TOPEKA         PTCLDY    76  45  33 S20G32    29.61F



USA.gov is the U.S. government's official web portal to all federal, state and local government web resources and services.